Date,TemperatureHighF,TemperatureAvgF,TemperatureLowF,DewpointHighF,DewpointAvgF,DewpointLowF,HumidityHigh,HumidityAvg,HumidityLow,PressureMaxIn,PressureMinIn,WindSpeedMaxMPH,WindSpeedAvgMPH,GustSpeedMaxMPH,PrecipitationSumIn
2013-9-1,84.9,74.4,68.9,75.3,70.6,63.8,100,89,64,29.78,29.70,10,1,11,0.00
2013-9-2,83.8,72.2,62.1,65.9,61.1,57.7,94,70,44,29.92,29.76,10,1,10,0.00
2013-9-3,77.6,64.4,52.8,62.0,56.9,52.0,100,79,48,30.05,29.92,9,0,9,0.00
2013-9-4,83.4,67.3,52.6,62.6,57.8,51.2,99,75,39,30.12,30.02,10,1,10,0.00
2013-9-5,86.5,72.1,56.3,69.5,62.2,54.6,98,74,42,30.15,30.08,6,0,7,0.00
2013-9-6,84.9,70.8,56.9,68.4,62.2,55.5,96,76,53,30.14,29.98,11,2,12,0.00
2013-9-7,86.7,72.8,61.2,70.0,64.2,60.0,98,77,47,30.00,29.86,19,2,19,0.00
2013-9-8,85.7,75.5,69.1,71.8,68.4,65.2,94,80,57,29.93,29.84,11,1,11,0.00
2013-9-9,93.6,78.7,68.4,74.6,70.7,66.8,100,79,48,29.88,29.81,15,3,16,0.00
2013-9-10,94.0,79.9,68.1,71.8,67.7,62.8,97,70,37,30.00,29.88,16,2,17,0.00
2013-9-11,93.4,79.5,67.1,70.6,66.1,56.8,96,68,31,30.05,29.95,18,2,18,0.00
2013-9-12,82.4,71.7,61.8,70.1,61.1,46.3,100,73,31,30.01,29.91,18,2,19,0.00
2013-9-13,72.5,60.5,46.5,53.4,47.2,42.1,94,64,37,30.12,30.01,11,2,11,0.00
2013-9-14,72.3,55.9,41.5,51.1,43.5,38.5,99,68,32,30.15,30.02,11,2,12,0.00
2013-9-15,72.1,60.1,48.9,61.7,52.6,44.2,96,78,47,30.08,29.94,18,2,19,0.00
2013-9-16,73.7,60.8,49.4,56.9,53.3,46.3,98,79,48,30.26,30.08,13,2,13,0.00
2013-9-17,75.6,60.1,47.0,57.0,51.9,45.7,99,77,47,30.26,30.05,14,3,15,0.00
2013-9-18,84.3,70.5,58.3,69.7,62.7,53.6,96,78,53,30.05,29.89,17,4,17,0.00
2013-9-19,91.6,79.0,70.3,71.0,68.9,65.6,97,74,44,29.91,29.75,22,6,22,0.00
2013-9-20,76.8,66.5,54.8,70.9,62.7,51.0,100,88,67,29.84,29.77,17,2,20,0.00
2013-9-21,70.9,58.3,48.3,54.6,49.1,44.6,97,74,42,29.90,29.81,13,1,14,0.00
2013-9-22,77.0,57.8,42.8,52.6,46.3,41.5,98,70,31,30.01,29.90,14,0,17,0.00
2013-9-23,76.3,58.0,43.5,49.6,45.5,40.1,98,69,29,30.04,29.94,14,2,14,0.00
2013-9-24,79.4,60.5,44.1,56.6,50.7,42.8,98,73,42,29.98,29.82,15,2,15,0.00
2013-9-25,84.5,66.3,51.7,59.8,53.5,48.6,92,66,35,29.87,29.81,10,1,11,0.00
2013-9-26,84.3,64.7,50.1,57.6,50.8,45.4,97,66,28,30.01,29.87,12,1,12,0.00
2013-9-27,83.2,64.6,48.8,54.9,48.4,43.6,94,62,25,30.11,29.99,15,2,16,0.00
2013-9-28,84.1,68.7,53.5,60.1,54.9,50.6,95,66,36,30.02,29.87,24,7,24,0.00
2013-9-29,73.9,62.7,49.5,52.0,46.8,42.2,85,59,33,30.00,29.94,6,1,6,0.00
2013-9-30,77.6,55.4,44.8,60.1,49.5,43.7,100,85,36,29.97,29.86,15,2,18,0.00